Regional Weather Roundup
Issued by NWS

Home | Current Version | Previous Version | Graphics & Text | Print | Product List | Glossary On
Versions: 1 2 3 4 5 6 7 8 9 10 11 12 13 14 15 16 17 18 19 20 21 22 23 24 25 26 27
000
ASUS45 KBOU 300707
RWRCO

WEATHER ROUNDUP FOR COLORADO
NATIONAL WEATHER SERVICE DENVER/BOULDER CO
100 AM MDT TUE MAY 30 2017

NOTE: "FAIR" INDICATES FEW OR NO CLOUDS BELOW 12000 FEET WITH NO
SIGNIFICANT WEATHER AND/OR OBSTRUCTIONS TO VISIBILITY.

COZ001>005-013-030-031-300800-
...NORTHWEST COLORADO...

CITY           SKY/WX    TMP DP  RH WIND       PRES   REMARKS
CRAIG          FAIR      41  36  82 SE5       30.23S
HAYDEN         FAIR      48  34  57 SE10      30.25S
MEEKER         FAIR      43  35  73 NE7       30.23R
RABBIT EARS PA FAIR      37  32  81 E6        30.44S
STEAMBOAT SPGS FAIR      43  35  73 E3        30.27S
WALDEN           N/A     34  30  86 SE6       30.35F WCI  29
$$

COZ006>008-011-300800-
...WEST CENTRAL VALLEYS...

CITY           SKY/WX    TMP DP  RH WIND       PRES   REMARKS
GRAND JUNCTION FAIR      67  28  23 SW5       30.09R
MONTROSE       FAIR      55  28  35 SE10      30.17S
EAGLE          FAIR      47  33  58 E3        30.29R
RIFLE          FAIR      53  31  42 CALM      30.17S
DELTA          FAIR      60  27  28 E6        30.13S
NUCLA          FAIR      54  27  35 E10       30.19S
$$

COZ017>023-064>068-300800-
...SOUTHWEST COLORADO...

CITY           SKY/WX    TMP DP  RH WIND       PRES   REMARKS
DURANGO        FAIR      46  29  51 E6        30.22R
CORTEZ         FAIR      43  34  70 E5        30.16R
PAGOSA SPRINGS FAIR      50  24  36 NE6       30.30R
TELLURIDE      FAIR      44  26  49 SE6       30.37S
WOLF CREEK PAS MOCLDY    36  23  60 SW9       30.55S
$$

COZ009-010-012-014-032>034-037-058>063-300800-
...CENTRAL COLORADO...

CITY           SKY/WX    TMP DP  RH WIND       PRES   REMARKS
ASPEN          FAIR      44  30  57 SW7       30.29S
BUENA VISTA    CLOUDY    48  37  64 CALM      30.37S
COPPER MTN     FAIR      37  28  70 CALM      30.51S
BERTHOUD PASS  FAIR      30  19  64 S3        30.52F
COTTONWOOD PAS CLOUDY    45  34  65 CALM      30.44S
GUNNISON       FAIR      43  29  57 N8        30.31R
KREMMLING      FAIR      45  37  76 CALM      30.33S
LEADVILLE      FAIR      33  27  78 CALM      30.41S
MONARCH PASS   FOG       32  32 100 NE20      30.60S VSB<1/4 WCI  20
SALIDA         FAIR      51  38  60 CALM      30.42S
SUNLIGHT       FAIR      36  28  75 NE7       30.48S
WILKERSON PASS FAIR      34  32  93 SW12G17   30.51F WCI  25
$$

COZ069>075-300800-
...SAN LUIS VALLEY/SANGRE DE CRISTO MOUNTAINS...

CITY           SKY/WX    TMP DP  RH WIND       PRES   REMARKS
ALAMOSA        FAIR      49  40  71 E10       30.30R
DEL NORTE      FAIR      48  36  62 NE6       30.34R
LA VETA PASS   MOCLDY    36  34  93 MISG      30.55F
SAGUACHE       FAIR      43  30  61 NE5       30.33R
$$

COZ035-036-038>040-300800-
...NORTHERN COLORADO FRONT RANGE...

CITY           SKY/WX    TMP DP  RH WIND       PRES   REMARKS
DENVER INTL AP FAIR      52  42  69 S7        30.24F
DMNS CITY PARK   N/A     51  45  79 E7        30.24S
AURORA         NOT AVBL
FRONT RANGE AP FAIR      48  45  87 S7        30.25F
ERIE MUNI ARPT FAIR      48  44  84 S3        30.23F
BOULDER MUN AP FAIR      54  41  62 SW3       30.23F
CENTENNIAL     FAIR      47  43  86 SE5       30.25F
BROOMFIELD     FAIR      52  41  66 NW5       30.25F
FORT COLLINS   FAIR      53  43  68 CALM      30.23F
LONGMONT       FAIR      49  43  81 CALM      30.25S
$$

COZ041-046-047-076>085-087-088-300800-
...PIKES PEAK/PALMER DIVIDE AND SOUTHERN FOOTHILLS...

CITY           SKY/WX    TMP DP  RH WIND       PRES   REMARKS
COLO. SPRINGS  MOCLDY    52  47  83 S12       30.30R
A. F. ACADEMY  MOCLDY    47  46  96 W6        30.30R
SCHRIEVER AFB  LGT RAIN  49  44  82 S8        30.30S
CHEYENNE MTN   NOT AVBL
ELLICOTT       FAIR     N/A N/A N/A CALM      30.29R
FALCON         LGT RAIN  50  44  80 S8        30.33R
FORT CARSON    NOT AVBL
LIMON          FAIR      42  42 100 SE3       30.26S
MONUMENT HILL  MOCLDY    43  37  81 S5        30.32F
CANON CITY     NOT AVBL
WALSENBURG     FAIR      48  46  93 SW8       30.29S
TRINIDAD       FAIR      51  46  83 W9        30.27F
$$

COZ042>045-048>051-090-091-300800-
...NORTHEAST COLORADO...

CITY           SKY/WX    TMP DP  RH WIND       PRES   REMARKS
GREELEY ARPT   FAIR      52  46  80 CALM      30.22S
AKRON          FAIR      50  44  80 SW9       30.21F
BURLINGTON     FAIR      49  47  93 SW8       30.20F
WRAY           FAIR      46  46 100 W6        30.17F
YUMA           FAIR      46  37  71 W7        30.18F
STERLING       NOT AVBL
HOLYOKE        NOT AVBL
FORT MORGAN    FAIR      48  45  87 W3        30.21F
$$

COZ086-089-092>099-300800-
...SOUTHEAST COLORADO...

CITY           SKY/WX    TMP DP  RH WIND       PRES   REMARKS
PUEBLO         FAIR      55  47  74 CALM      30.24S
LA JUNTA       FAIR      58  49  72 W12       30.20S
LAMAR          FAIR      52  50  93 CALM      30.18S
SPRINGFIELD      N/A     52  49  89 SE8       30.21F
$$




USA.gov is the U.S. government's official web portal to all federal, state and local government web resources and services.